Window Rock, AZ

4:13 AM MDT on August 19, 2017 (GMT -0600)
Window Rock

Weather History for KRQE - November, 2012

Change the Weather History Date:

Friday, November 9, 2012

  Actual Average Record
Temperature  
Mean Temperature 46 °F -  
Max Temperature 52 °F 55 °F 73 °F (1942)
Min Temperature 39 °F 26 °F 14 °F (2011)
Degree Days  
Heating Degree Days 20    
Moisture  
Dew Point 36 °F    
Average Humidity 72    
Maximum Humidity 93    
Minimum Humidity 44    
Precipitation  
Precipitation 0.10 in - - ()
Sea Level Pressure  
Sea Level Pressure 29.76 in    
Wind  
Wind Speed 9 mph (SSW)    
Max Wind Speed 25 mph    
Max Gust Speed 43 mph    
Visibility 9 miles    
Events Rain    
Averages and records for this station are not official NWS values.
T = Trace of Precipitation, MM = Missing Value Source: NWS Daily Summary

Daily Weather History Graph

Daily Weather History Graph

Search for Another Location

Airport or City:

Trip Planner

Search our weather history database for the weather conditions in past years. The results will help you decide how hot, cold, wet, or windy it might be!

Date:

Astronomy

Nov. 09, 2012 Rise Set
Actual Time 6:46 AM MST 5:13 PM MST
Civil Twilight 6:19 AM MST 5:40 PM MST
Nautical Twilight 5:49 AM MST 6:10 PM MST
Astronomical Twilight 5:19 AM MST 6:40 PM MST
Moon 1:58 AM MST (11/9) 2:20 PM MST (11/9)
Length of Visible Light 11h 20m
Length of Day
10h 26m
Waning Crescent, 22% of the Moon is Illuminated
Nov 9
Waning Crescent
Nov 13
New
Nov 20
First Quarter
Nov 28
Full
Dec 6
Last Quarter

Hourly Weather History & Observations

Time (MST) Temp. Windchill Dew Point Humidity Pressure Visibility Wind Dir Wind Speed Gust Speed Precip Events Conditions
12:53 AM 43.0 °F 38.2 °F 39.0 °F 86% 29.83 in 8.0 mi SSW 8.1 mph 16.1 mph 0.00 in Rain Light Rain
1:53 AM 43.0 °F - 37.9 °F 82% 29.81 in 10.0 mi Calm Calm - 0.00 in   Mostly Cloudy
2:53 AM 42.1 °F 40.2 °F 36.0 °F 79% 29.80 in 10.0 mi South 3.5 mph - N/A   Scattered Clouds
3:53 AM 41.0 °F 38.0 °F 35.1 °F 79% 29.78 in 10.0 mi SSW 4.6 mph - N/A   Clear
4:53 AM 39.0 °F 35.7 °F 34.0 °F 82% 29.81 in 10.0 mi South 4.6 mph - N/A   Scattered Clouds
5:53 AM 41.0 °F 37.1 °F 35.1 °F 79% 29.83 in 10.0 mi SSE 5.8 mph - N/A   Mostly Cloudy
6:48 AM 42.8 °F 38.6 °F 35.6 °F 76% 29.98 in 10.0 mi East 6.9 mph - N/A   Mostly Cloudy
6:53 AM 42.1 °F 37.7 °F 36.0 °F 79% 29.82 in 10.0 mi East 6.9 mph - N/A   Mostly Cloudy
7:25 AM 42.8 °F 40.1 °F 37.4 °F 81% 29.99 in 10.0 mi Variable 4.6 mph - N/A   Overcast
7:53 AM 46.0 °F 39.9 °F 37.9 °F 73% 29.79 in 10.0 mi SSW 13.8 mph 19.6 mph N/A   Partly Cloudy
8:46 AM 44.6 °F 40.2 °F 39.2 °F 81% 30.01 in 3.0 mi SSW 8.1 mph 19.6 mph 0.02 in Rain Light Rain
8:53 AM 43.0 °F 37.7 °F 41.0 °F 93% 29.83 in 7.0 mi South 9.2 mph - 0.02 in Rain Light Rain
9:53 AM 46.9 °F - 41.0 °F 80% 29.80 in 10.0 mi South 11.5 mph 20.7 mph 0.00 in   Overcast
10:53 AM 48.9 °F - 39.9 °F 71% 29.79 in 10.0 mi South 16.1 mph 23.0 mph N/A   Overcast
11:53 AM 45.0 °F 38.9 °F 42.1 °F 90% 29.77 in 4.0 mi South 12.7 mph 27.6 mph 0.03 in Rain Light Rain
12:53 PM 48.0 °F - 44.1 °F 86% 29.70 in 10.0 mi South 12.7 mph 21.9 mph 0.02 in Rain Light Rain
1:53 PM 51.1 °F - 43.0 °F 74% 29.66 in 10.0 mi SW 15.0 mph 25.3 mph 0.02 in   Mostly Cloudy
2:53 PM 51.1 °F - 42.1 °F 71% 29.64 in 10.0 mi SW 19.6 mph 38.0 mph 0.01 in   Partly Cloudy
3:53 PM 52.0 °F - 35.1 °F 53% 29.64 in 10.0 mi SSW 25.3 mph 42.6 mph N/A   Clear
4:53 PM 50.0 °F - 28.9 °F 44% 29.66 in 10.0 mi SW 19.6 mph 34.5 mph N/A   Clear
5:53 PM 48.0 °F - 32.0 °F 54% 29.67 in 10.0 mi SW 16.1 mph 31.1 mph N/A   Clear
6:53 PM 46.0 °F 41.4 °F 30.0 °F 54% 29.68 in 10.0 mi SW 9.2 mph - N/A   Clear
7:53 PM 44.1 °F 39.5 °F 28.9 °F 55% 29.67 in 10.0 mi SSW 8.1 mph - N/A   Clear
8:53 PM 45.0 °F 39.3 °F 30.0 °F 56% 29.67 in 10.0 mi SSW 11.5 mph 19.6 mph N/A   Overcast
9:53 PM 44.1 °F 39.5 °F 32.0 °F 63% 29.64 in 10.0 mi SSW 8.1 mph - N/A   Mostly Cloudy
10:53 PM 44.1 °F 35.7 °F 32.0 °F 63% 29.62 in 10.0 mi SSW 20.7 mph 33.4 mph N/A   Clear
11:53 PM 42.1 °F 33.1 °F 30.0 °F 62% 29.61 in 10.0 mi South 20.7 mph 33.4 mph N/A   Clear